Location: Pandora
(40.9481°N, 83.9611°W)
Time: 09:18:54
(UTC-04:00)

Envisat - Pass Details

Date: 20 September 2021
Orbit: 764 x 766 km, 98.2° (Epoch: 23 October)

Event Time Altitude Azimuth Distance (km) Brightness Sun altitude
Rises 06:24:38 0° 18° (NNE) 3,239 6.7 -11.5°
Reaches altitude 10° 06:27:00 10° 23° (NNE) 2,309 6.0 -11.1°
Maximum altitude 06:31:58 52° 100° (E) 945 3.9 -10.2°
Drops below altitude 10° 06:36:54 10° 176° (S) 2,292 5.4 -9.2°
Sets 06:39:14 0° 181° (S) 3,213 6.1 -8.8°
